RYR60JW EGPH-LEZL

Flight info

Callsign RYR60JW
Flight time 3h 2m
Altitude 25000
Route GOSAM P600 FENIK L612 NAVSO/N0447F350 DCT ADZOP DCT EGTOC/N0449F370 DCT NOKIN N862 KARNO DCT ALHUP DCT ABWIV DCT PACSE DCT TONQU DCT SALCO DCT NOVAN DCT DELOG N864 MONTO N857 HIJ
Aircraft B738/M-SDE3FGILRWY/SB1

Departure

Time 2026-04-15 09:33
Airport Edinburgh Airport (EGPH)

Arrival

Time 2026-04-15 12:36
Airport Seville Airport (LEZL)
Time Latitude Longitude Altitude Speed Heading
2026-04-15 08:35 55.94922 -3.36431 111 ft 0 kts 149°
2026-04-15 09:24 55.94927 -3.36438 113 ft 4 kts 149°
2026-04-15 09:24 55.94951 -3.36462 111 ft 3 kts 149°
2026-04-15 09:24 55.94969 -3.36487 111 ft 4 kts 116°
2026-04-15 09:24 55.94970 -3.36526 112 ft 4 kts 62°
2026-04-15 09:25 55.94963 -3.36549 111 ft 1 kts 59°
2026-04-15 09:25 55.94962 -3.36551 111 ft 0 kts 59°
2026-04-15 09:28 55.94963 -3.36548 111 ft 1 kts 59°
2026-04-15 09:28 55.94973 -3.36519 112 ft 5 kts 59°
2026-04-15 09:29 55.94996 -3.36448 111 ft 7 kts 59°
2026-04-15 09:29 55.95030 -3.36389 114 ft 7 kts 18°
2026-04-15 09:29 55.95081 -3.36397 115 ft 8 kts 11°
2026-04-15 09:29 55.95117 -3.36330 113 ft 8 kts 58°
2026-04-15 09:30 55.95159 -3.36204 113 ft 14 kts 58°
2026-04-15 09:30 55.95219 -3.36029 115 ft 19 kts 59°
2026-04-15 09:30 55.95298 -3.35793 114 ft 24 kts 59°
2026-04-15 09:30 55.95378 -3.35557 114 ft 17 kts 58°
2026-04-15 09:31 55.95435 -3.35418 115 ft 10 kts 29°
2026-04-15 09:31 55.95501 -3.35444 113 ft 10 kts 327°
2026-04-15 09:31 55.95558 -3.35524 112 ft 11 kts 314°
2026-04-15 09:31 55.95546 -3.35636 112 ft 10 kts 245°
2026-04-15 09:32 55.95533 -3.35676 112 ft 0 kts 239°
2026-04-15 09:33 55.95515 -3.35729 112 ft 26 kts 238°
2026-04-15 09:33 55.95285 -3.36403 110 ft 97 kts 239°
2026-04-15 09:33 55.94827 -3.37741 117 ft 153 kts 238°
2026-04-15 09:33 55.94291 -3.39432 748 ft 158 kts 242°
2026-04-15 09:34 55.93892 -3.41197 1790 ft 143 kts 233°
2026-04-15 09:34 55.93347 -3.42716 2402 ft 156 kts 226°
2026-04-15 09:34 55.92669 -3.44444 2684 ft 183 kts 228°
2026-04-15 09:34 55.91944 -3.46383 3203 ft 191 kts 229°
2026-04-15 09:35 55.91189 -3.48458 3592 ft 209 kts 230°
2026-04-15 09:35 55.90455 -3.50787 4199 ft 226 kts 245°
2026-04-15 09:35 55.90155 -3.53619 4898 ft 240 kts 253°
2026-04-15 09:35 55.89867 -3.56624 5533 ft 251 kts 253°
2026-04-15 09:36 55.89565 -3.59701 5778 ft 254 kts 253°
2026-04-15 09:36 55.89254 -3.62827 6110 ft 260 kts 253°
2026-04-15 09:36 55.88938 -3.66012 6932 ft 261 kts 254°
2026-04-15 09:36 55.88619 -3.69210 7763 ft 264 kts 253°
2026-04-15 09:37 55.88291 -3.72461 8521 ft 269 kts 253°
2026-04-15 09:37 55.87955 -3.75773 9273 ft 274 kts 253°
2026-04-15 09:37 55.87613 -3.79152 9992 ft 280 kts 254°
2026-04-15 09:37 55.87258 -3.82671 10349 ft 299 kts 255°
2026-04-15 09:38 55.86889 -3.86371 10931 ft 306 kts 254°
2026-04-15 09:38 55.86516 -3.90140 11641 ft 311 kts 255°
2026-04-15 09:38 55.86140 -3.93935 12446 ft 312 kts 254°
2026-04-15 09:38 55.85763 -3.97733 13336 ft 312 kts 253°
2026-04-15 09:39 55.85379 -4.01551 14068 ft 315 kts 252°
2026-04-15 09:39 55.84987 -4.05412 14699 ft 319 kts 252°
2026-04-15 09:39 55.84570 -4.09309 15356 ft 320 kts 248°
2026-04-15 09:39 55.83680 -4.12868 16016 ft 312 kts 230°
2026-04-15 09:40 55.82309 -4.15815 16723 ft 309 kts 219°
2026-04-15 09:40 55.80620 -4.18160 17377 ft 309 kts 211°
2026-04-15 09:40 55.78832 -4.20298 18022 ft 312 kts 210°
2026-04-15 09:40 55.77016 -4.22459 18595 ft 316 kts 211°
2026-04-15 09:41 55.75196 -4.24664 19166 ft 318 kts 211°
2026-04-15 09:41 55.73228 -4.26416 19712 ft 317 kts 193°
2026-04-15 09:41 55.71038 -4.26876 20307 ft 319 kts 179°
2026-04-15 09:41 55.68863 -4.26361 20834 ft 325 kts 165°
2026-04-15 09:42 55.66736 -4.24707 21379 ft 332 kts 156°
2026-04-15 09:42 55.64704 -4.22728 21949 ft 335 kts 154°
2026-04-15 09:42 55.62670 -4.20676 22463 ft 339 kts 154°
2026-04-15 09:42 55.60619 -4.18611 23055 ft 340 kts 154°
2026-04-15 09:43 55.58583 -4.16583 23606 ft 340 kts 154°
2026-04-15 09:43 55.56518 -4.14546 24109 ft 341 kts 155°
2026-04-15 09:43 55.54404 -4.12476 24556 ft 344 kts 155°
2026-04-15 09:43 55.52334 -4.10459 24984 ft 346 kts 155°
2026-04-15 09:44 55.50211 -4.08397 25317 ft 352 kts 155°
2026-04-15 09:44 55.48057 -4.06304 25696 ft 354 kts 155°
2026-04-15 09:44 55.45910 -4.04215 26325 ft 351 kts 155°
2026-04-15 09:44 55.43764 -4.02129 26673 ft 355 kts 155°
2026-04-15 09:45 55.41586 -4.00016 27016 ft 359 kts 155°
2026-04-15 09:45 55.39384 -3.97883 27370 ft 363 kts 155°
2026-04-15 09:45 55.37162 -3.95731 27742 ft 366 kts 155°
2026-04-15 09:45 55.34928 -3.93570 28158 ft 367 kts 155°
2026-04-15 09:46 55.32684 -3.91401 28535 ft 369 kts 155°
2026-04-15 09:46 55.30428 -3.89222 28935 ft 370 kts 155°
2026-04-15 09:46 55.28169 -3.87044 29356 ft 371 kts 155°
2026-04-15 09:46 55.25904 -3.84865 29626 ft 374 kts 155°
2026-04-15 09:47 55.23603 -3.82659 29830 ft 379 kts 156°
2026-04-15 09:47 55.21212 -3.80726 30083 ft 378 kts 164°
2026-04-15 09:47 55.18718 -3.79353 30457 ft 376 kts 166°
2026-04-15 09:47 55.16220 -3.78011 30806 ft 376 kts 166°
2026-04-15 09:48 55.13707 -3.76655 31061 ft 379 kts 166°
2026-04-15 09:48 55.11180 -3.75285 31309 ft 381 kts 166°
2026-04-15 09:48 55.08646 -3.73906 31601 ft 382 kts 166°
2026-04-15 09:48 55.06107 -3.72521 31900 ft 383 kts 166°
2026-04-15 09:49 55.03562 -3.71133 32164 ft 384 kts 166°
2026-04-15 09:49 55.01002 -3.69738 32375 ft 386 kts 166°
2026-04-15 09:49 54.98425 -3.68335 32571 ft 389 kts 166°
2026-04-15 09:49 54.95843 -3.66931 32768 ft 391 kts 166°
2026-04-15 09:50 54.93239 -3.65516 33071 ft 390 kts 167°
2026-04-15 09:50 54.90654 -3.64111 33460 ft 388 kts 167°
2026-04-15 09:50 54.88079 -3.62714 33795 ft 387 kts 167°
2026-04-15 09:50 54.85515 -3.61326 34029 ft 387 kts 167°
2026-04-15 09:51 54.82929 -3.59929 34216 ft 389 kts 167°
2026-04-15 09:51 54.80345 -3.58536 34384 ft 390 kts 167°
2026-04-15 09:51 54.77751 -3.57138 34595 ft 390 kts 167°
2026-04-15 09:51 54.75159 -3.55743 34814 ft 390 kts 167°
2026-04-15 09:52 54.72561 -3.54347 34996 ft 391 kts 167°
2026-04-15 09:52 54.69961 -3.52951 35155 ft 392 kts 167°
2026-04-15 09:52 54.67355 -3.51555 35353 ft 392 kts 167°
2026-04-15 09:52 54.64745 -3.50157 35556 ft 392 kts 167°
2026-04-15 09:53 54.62136 -3.48763 35728 ft 393 kts 167°
2026-04-15 09:53 54.59519 -3.47365 35899 ft 394 kts 167°
2026-04-15 09:53 54.56899 -3.45969 36045 ft 395 kts 167°
2026-04-15 09:53 54.54267 -3.44568 36218 ft 395 kts 167°
2026-04-15 09:54 54.51643 -3.43172 36410 ft 395 kts 167°
2026-04-15 09:54 54.49009 -3.41773 36581 ft 396 kts 167°
2026-04-15 09:54 54.46372 -3.40375 36741 ft 397 kts 167°
2026-04-15 09:54 54.43732 -3.38977 36833 ft 399 kts 167°
2026-04-15 09:55 54.38410 -3.36165 36846 ft 400 kts 167°
2026-04-15 09:55 54.33125 -3.33376 36848 ft 395 kts 167°
2026-04-15 09:56 54.27886 -3.30621 36852 ft 392 kts 167°
2026-04-15 09:57 54.20082 -3.26533 36846 ft 390 kts 167°
2026-04-15 09:57 54.14807 -3.24972 36867 ft 383 kts 178°
2026-04-15 09:58 54.09478 -3.24197 36867 ft 390 kts 178°
2026-04-15 09:58 54.03991 -3.23335 36858 ft 395 kts 178°
2026-04-15 09:59 53.98545 -3.22269 36850 ft 400 kts 172°
2026-04-15 09:59 53.93058 -3.20180 36851 ft 401 kts 171°
2026-04-15 10:00 53.87678 -3.18063 36843 ft 392 kts 171°
2026-04-15 10:00 53.82373 -3.16020 36858 ft 390 kts 172°
2026-04-15 10:01 53.77112 -3.14028 36862 ft 390 kts 172°
2026-04-15 10:01 53.71809 -3.12033 36799 ft 390 kts 172°
2026-04-15 10:02 53.66510 -3.10044 36844 ft 391 kts 172°
2026-04-15 10:02 53.61198 -3.08056 36859 ft 391 kts 172°
2026-04-15 10:03 53.55877 -3.06069 36859 ft 392 kts 172°
2026-04-15 10:03 53.50532 -3.04077 36858 ft 393 kts 172°
2026-04-15 10:04 53.45186 -3.02091 36863 ft 394 kts 172°
2026-04-15 10:04 53.40698 -3.00427 36880 ft 395 kts 172°
2026-04-15 10:05 53.35330 -2.98441 36883 ft 395 kts 172°
2026-04-15 10:05 53.29960 -2.96460 36887 ft 395 kts 172°
2026-04-15 10:06 53.24624 -2.94496 36882 ft 395 kts 172°
2026-04-15 10:06 53.19259 -2.92527 36878 ft 394 kts 172°
2026-04-15 10:07 53.13900 -2.90564 36896 ft 394 kts 172°
2026-04-15 10:07 53.08540 -2.88712 36880 ft 391 kts 177°
2026-04-15 10:08 53.03162 -2.88637 36899 ft 385 kts 186°
2026-04-15 10:08 52.97811 -2.89132 36889 ft 385 kts 185°
2026-04-15 10:09 52.92466 -2.89556 36880 ft 385 kts 186°
2026-04-15 10:09 52.87131 -2.90270 36897 ft 384 kts 190°
2026-04-15 10:10 52.81824 -2.91570 36901 ft 387 kts 191°
2026-04-15 10:10 52.76478 -2.92858 36911 ft 389 kts 190°
2026-04-15 10:11 52.71097 -2.94101 36915 ft 392 kts 188°
2026-04-15 10:11 52.65634 -2.94627 36907 ft 394 kts 185°
2026-04-15 10:12 52.60147 -2.95045 36914 ft 394 kts 185°
2026-04-15 10:12 52.54677 -2.95476 36914 ft 393 kts 186°
2026-04-15 10:13 52.49223 -2.95920 36911 ft 392 kts 186°
2026-04-15 10:13 52.43792 -2.96366 36911 ft 390 kts 186°
2026-04-15 10:14 52.38389 -2.96810 36917 ft 388 kts 186°
2026-04-15 10:14 52.33002 -2.97251 36963 ft 387 kts 186°
2026-04-15 10:15 52.27621 -2.97692 36938 ft 387 kts 186°
2026-04-15 10:15 52.22254 -2.98130 36931 ft 385 kts 186°
2026-04-15 10:16 52.16904 -2.98565 36933 ft 384 kts 186°
2026-04-15 10:16 52.11563 -2.98999 36931 ft 385 kts 186°
2026-04-15 10:17 52.06249 -2.99429 36934 ft 385 kts 186°
2026-04-15 10:17 52.00898 -2.99862 36939 ft 386 kts 186°
2026-04-15 10:18 51.95531 -3.00295 36938 ft 387 kts 186°
2026-04-15 10:18 51.90136 -3.00729 36951 ft 389 kts 186°
2026-04-15 10:19 51.84744 -3.01511 36957 ft 389 kts 190°
2026-04-15 10:19 51.79356 -3.02669 36940 ft 392 kts 190°
2026-04-15 10:20 51.73946 -3.03828 36934 ft 393 kts 190°
2026-04-15 10:20 51.68515 -3.04969 36946 ft 395 kts 190°
2026-04-15 10:21 51.63044 -3.06108 36937 ft 397 kts 190°
2026-04-15 10:21 51.57572 -3.07241 36944 ft 397 kts 190°
2026-04-15 10:22 51.52101 -3.08372 36960 ft 396 kts 190°
2026-04-15 10:22 51.46659 -3.09494 36959 ft 393 kts 190°
2026-04-15 10:23 51.41255 -3.10607 36955 ft 390 kts 190°
2026-04-15 10:23 51.35889 -3.11709 36959 ft 387 kts 190°
2026-04-15 10:24 51.30563 -3.12801 36954 ft 385 kts 190°
2026-04-15 10:24 51.25273 -3.13884 36952 ft 382 kts 190°
2026-04-15 10:25 51.20004 -3.14962 36964 ft 381 kts 190°
2026-04-15 10:25 51.14743 -3.16036 36963 ft 382 kts 190°
2026-04-15 10:26 51.09453 -3.17114 36972 ft 384 kts 190°
2026-04-15 10:26 51.04165 -3.18188 36961 ft 387 kts 190°
2026-04-15 10:27 50.98780 -3.19279 36979 ft 389 kts 190°
2026-04-15 10:27 50.93434 -3.20359 36978 ft 391 kts 190°
2026-04-15 10:28 50.87994 -3.21456 36989 ft 392 kts 190°
2026-04-15 10:28 50.82605 -3.22540 36968 ft 393 kts 190°
2026-04-15 10:29 50.77183 -3.23628 36982 ft 393 kts 190°
2026-04-15 10:29 50.71759 -3.24713 36995 ft 392 kts 190°
2026-04-15 10:30 50.66341 -3.25796 36991 ft 392 kts 190°
2026-04-15 10:30 50.60933 -3.26873 36994 ft 392 kts 191°
2026-04-15 10:31 50.55537 -3.27946 36981 ft 389 kts 191°
2026-04-15 10:31 50.50171 -3.29011 36992 ft 388 kts 191°
2026-04-15 10:32 50.44830 -3.30069 36999 ft 387 kts 191°
2026-04-15 10:32 50.39492 -3.31123 36995 ft 386 kts 191°
2026-04-15 10:33 50.34237 -3.32706 36991 ft 384 kts 195°
2026-04-15 10:33 50.29010 -3.34509 36998 ft 385 kts 195°
2026-04-15 10:34 50.23772 -3.36300 37003 ft 386 kts 195°
2026-04-15 10:34 50.18517 -3.38076 37008 ft 388 kts 195°
2026-04-15 10:35 50.13229 -3.39852 36989 ft 389 kts 195°
2026-04-15 10:35 50.07929 -3.41627 37013 ft 390 kts 195°
2026-04-15 10:36 50.02614 -3.43404 37013 ft 391 kts 195°
2026-04-15 10:36 49.97292 -3.45178 37019 ft 391 kts 195°
2026-04-15 10:37 49.91965 -3.46951 37009 ft 391 kts 195°
2026-04-15 10:37 49.86652 -3.48715 37006 ft 391 kts 195°
2026-04-15 10:38 49.81339 -3.50475 37022 ft 390 kts 195°
2026-04-15 10:38 49.76036 -3.52228 37025 ft 389 kts 195°
2026-04-15 10:39 49.70647 -3.53237 37033 ft 393 kts 186°
2026-04-15 10:39 49.65181 -3.53478 37023 ft 392 kts 187°
2026-04-15 10:40 49.59726 -3.53743 37032 ft 392 kts 187°
2026-04-15 10:40 49.54277 -3.54023 37031 ft 392 kts 187°
2026-04-15 10:41 49.48830 -3.54307 37031 ft 392 kts 187°
2026-04-15 10:41 49.43393 -3.54592 37028 ft 391 kts 187°
2026-04-15 10:42 49.37951 -3.54876 37034 ft 391 kts 187°
2026-04-15 10:42 49.32505 -3.55160 37042 ft 392 kts 187°
2026-04-15 10:43 49.27050 -3.55444 37085 ft 393 kts 187°
2026-04-15 10:43 49.21579 -3.55728 37042 ft 393 kts 187°
2026-04-15 10:44 49.16143 -3.56009 37046 ft 393 kts 187°
2026-04-15 10:44 49.10634 -3.56293 37050 ft 393 kts 187°
2026-04-15 10:45 49.05161 -3.56575 37058 ft 393 kts 187°
2026-04-15 10:45 48.99692 -3.56856 37070 ft 394 kts 188°
2026-04-15 10:46 48.94211 -3.57137 37067 ft 394 kts 188°
2026-04-15 10:46 48.88773 -3.57415 37081 ft 393 kts 188°
2026-04-15 10:47 48.83295 -3.57695 37065 ft 394 kts 188°
2026-04-15 10:47 48.77824 -3.57974 37078 ft 393 kts 188°
2026-04-15 10:48 48.72359 -3.58251 37070 ft 392 kts 188°
2026-04-15 10:48 48.66901 -3.58529 37075 ft 393 kts 188°
2026-04-15 10:49 48.61438 -3.58805 37064 ft 392 kts 188°
2026-04-15 10:49 48.55988 -3.59079 37068 ft 392 kts 188°
2026-04-15 10:50 48.51418 -3.59310 37059 ft 392 kts 188°
2026-04-15 10:50 48.46003 -3.59583 37073 ft 392 kts 188°
2026-04-15 10:51 48.40543 -3.59858 37080 ft 393 kts 188°
2026-04-15 10:51 48.35078 -3.60132 37074 ft 393 kts 188°
2026-04-15 10:52 48.29603 -3.60406 37068 ft 394 kts 188°
2026-04-15 10:52 48.24113 -3.60680 37086 ft 396 kts 188°
2026-04-15 10:53 48.18601 -3.60955 37073 ft 397 kts 188°
2026-04-15 10:53 48.13082 -3.61228 37078 ft 397 kts 188°
2026-04-15 10:54 48.07566 -3.61500 37093 ft 397 kts 188°
2026-04-15 10:54 48.02048 -3.61774 37081 ft 398 kts 188°
2026-04-15 10:55 47.96513 -3.62047 37111 ft 398 kts 188°
2026-04-15 10:55 47.90975 -3.62319 37106 ft 398 kts 188°
2026-04-15 10:56 47.85442 -3.62591 37111 ft 398 kts 188°
2026-04-15 10:56 47.79907 -3.62863 37127 ft 398 kts 188°
2026-04-15 10:57 47.74371 -3.63134 37100 ft 398 kts 188°
2026-04-15 10:57 47.66076 -3.63538 37137 ft 398 kts 189°
2026-04-15 10:58 47.60536 -3.63809 37122 ft 399 kts 189°
2026-04-15 10:58 47.54988 -3.64078 37131 ft 398 kts 189°
2026-04-15 10:59 47.49458 -3.64345 37128 ft 398 kts 189°
2026-04-15 10:59 47.43921 -3.64613 37135 ft 398 kts 189°
2026-04-15 11:00 47.38377 -3.64881 37142 ft 399 kts 189°
2026-04-15 11:00 47.32815 -3.65150 37135 ft 400 kts 189°
2026-04-15 11:01 47.27251 -3.65417 37135 ft 400 kts 189°
2026-04-15 11:01 47.21683 -3.65684 37153 ft 401 kts 189°
2026-04-15 11:02 47.16134 -3.65950 37156 ft 402 kts 189°
2026-04-15 11:02 47.10537 -3.66217 37136 ft 403 kts 189°
2026-04-15 11:03 47.04934 -3.66484 37165 ft 403 kts 189°
2026-04-15 11:03 46.99324 -3.66751 37171 ft 404 kts 189°
2026-04-15 11:04 46.93701 -3.67018 37166 ft 404 kts 189°
2026-04-15 11:04 46.88073 -3.67284 37154 ft 404 kts 189°
2026-04-15 11:05 46.82446 -3.67550 37174 ft 405 kts 189°
2026-04-15 11:05 46.76808 -3.67816 37171 ft 406 kts 189°
2026-04-15 11:06 46.71164 -3.68081 37177 ft 406 kts 189°
2026-04-15 11:06 46.65519 -3.68346 37174 ft 406 kts 189°
2026-04-15 11:07 46.59882 -3.68610 37173 ft 406 kts 189°
2026-04-15 11:07 46.54243 -3.68873 37182 ft 405 kts 189°
2026-04-15 11:08 46.48607 -3.69136 37173 ft 405 kts 189°
2026-04-15 11:08 46.42986 -3.69398 37180 ft 404 kts 189°
2026-04-15 11:09 46.37364 -3.69660 37186 ft 404 kts 189°
2026-04-15 11:09 46.31743 -3.69947 37184 ft 402 kts 192°
2026-04-15 11:10 46.26195 -3.70719 37189 ft 400 kts 193°
2026-04-15 11:10 46.20648 -3.71591 37196 ft 401 kts 193°
2026-04-15 11:11 46.15090 -3.72451 37201 ft 403 kts 193°
2026-04-15 11:11 46.09545 -3.73289 37180 ft 404 kts 193°
2026-04-15 11:12 46.03947 -3.74124 37202 ft 405 kts 193°
2026-04-15 11:12 45.98333 -3.74958 37205 ft 407 kts 193°
2026-04-15 11:13 45.92694 -3.75793 37210 ft 408 kts 193°
2026-04-15 11:13 45.87050 -3.76628 37206 ft 408 kts 193°
2026-04-15 11:14 45.81392 -3.77463 37212 ft 409 kts 193°
2026-04-15 11:14 45.75735 -3.78296 37212 ft 409 kts 193°
2026-04-15 11:15 45.70077 -3.79128 37183 ft 409 kts 193°
2026-04-15 11:15 45.64409 -3.79959 37201 ft 409 kts 193°
2026-04-15 11:16 45.58755 -3.80787 37217 ft 409 kts 193°
2026-04-15 11:16 45.53098 -3.81614 37218 ft 409 kts 193°
2026-04-15 11:17 45.47442 -3.82439 37218 ft 408 kts 193°
2026-04-15 11:17 45.41787 -3.83262 37222 ft 408 kts 193°
2026-04-15 11:18 45.36134 -3.84084 37224 ft 408 kts 193°
2026-04-15 11:18 45.30481 -3.84903 37200 ft 408 kts 193°
2026-04-15 11:19 45.24842 -3.85719 37224 ft 408 kts 193°
2026-04-15 11:19 45.19185 -3.86536 37234 ft 408 kts 193°
2026-04-15 11:20 45.13532 -3.87352 37228 ft 408 kts 193°
2026-04-15 11:20 45.07877 -3.88165 37226 ft 408 kts 193°
2026-04-15 11:21 45.02263 -3.88970 37234 ft 408 kts 193°
2026-04-15 11:21 44.96607 -3.89781 37234 ft 409 kts 193°
2026-04-15 11:22 44.90953 -3.90589 37218 ft 408 kts 193°
2026-04-15 11:22 44.85297 -3.91396 37226 ft 408 kts 193°
2026-04-15 11:23 44.79647 -3.92201 37237 ft 408 kts 193°
2026-04-15 11:23 44.73996 -3.93005 37237 ft 408 kts 193°
2026-04-15 11:24 44.68339 -3.93807 37236 ft 408 kts 193°
2026-04-15 11:24 44.62681 -3.94608 37240 ft 409 kts 193°
2026-04-15 11:25 44.57026 -3.95407 37239 ft 409 kts 193°
2026-04-15 11:25 44.51371 -3.96205 37231 ft 408 kts 194°
2026-04-15 11:26 44.45718 -3.97000 37241 ft 408 kts 194°
2026-04-15 11:26 44.40072 -3.97794 37226 ft 408 kts 194°
2026-04-15 11:27 44.34422 -3.98586 37227 ft 408 kts 193°
2026-04-15 11:27 44.28671 -3.98480 37250 ft 418 kts 184°
2026-04-15 11:28 44.22868 -3.97851 37245 ft 418 kts 184°
2026-04-15 11:28 44.17073 -3.97248 37241 ft 418 kts 185°
2026-04-15 11:29 44.11279 -3.96670 37240 ft 417 kts 185°
2026-04-15 11:29 44.05501 -3.96105 37242 ft 417 kts 185°
2026-04-15 11:30 43.99709 -3.95540 37241 ft 417 kts 185°
2026-04-15 11:30 43.93928 -3.94976 37227 ft 417 kts 185°
2026-04-15 11:31 43.88140 -3.94412 37237 ft 417 kts 185°
2026-04-15 11:31 43.82351 -3.93849 37240 ft 417 kts 185°
2026-04-15 11:32 43.76563 -3.93287 37240 ft 418 kts 185°
2026-04-15 11:32 43.70766 -3.92720 37235 ft 418 kts 185°
2026-04-15 11:33 43.65002 -3.92154 37243 ft 418 kts 185°
2026-04-15 11:33 43.59191 -3.91585 37239 ft 419 kts 185°
2026-04-15 11:34 43.53375 -3.91017 37234 ft 419 kts 185°
2026-04-15 11:34 43.47549 -3.90449 37238 ft 420 kts 185°
2026-04-15 11:35 43.41787 -3.90528 37250 ft 409 kts 195°
2026-04-15 11:35 43.36138 -3.91444 37228 ft 409 kts 195°
2026-04-15 11:36 43.30466 -3.92353 37234 ft 411 kts 195°
2026-04-15 11:36 43.25729 -3.93075 37239 ft 413 kts 195°
2026-04-15 11:37 43.20011 -3.93926 37225 ft 414 kts 195°
2026-04-15 11:37 43.14278 -3.94772 37187 ft 413 kts 194°
2026-04-15 11:38 43.08569 -3.95615 37219 ft 414 kts 194°
2026-04-15 11:38 43.02831 -3.96465 37202 ft 415 kts 194°
2026-04-15 11:39 42.97079 -3.97312 37213 ft 416 kts 194°
2026-04-15 11:39 42.91306 -3.98160 37205 ft 417 kts 194°
2026-04-15 11:40 42.85535 -3.99004 37216 ft 418 kts 194°
2026-04-15 11:40 42.79742 -3.99850 37209 ft 419 kts 194°
2026-04-15 11:41 42.73940 -4.00696 37207 ft 419 kts 194°
2026-04-15 11:41 42.68139 -4.01540 37211 ft 419 kts 194°
2026-04-15 11:42 42.62354 -4.02380 37225 ft 418 kts 194°
2026-04-15 11:42 42.56578 -4.03218 37220 ft 417 kts 194°
2026-04-15 11:43 42.50811 -4.04048 37211 ft 416 kts 194°
2026-04-15 11:43 42.45057 -4.04873 37226 ft 415 kts 194°
2026-04-15 11:44 42.39309 -4.05698 37228 ft 415 kts 194°
2026-04-15 11:44 42.33566 -4.06520 37229 ft 415 kts 194°
2026-04-15 11:45 42.27812 -4.07343 37228 ft 416 kts 194°
2026-04-15 11:45 42.22042 -4.08166 37230 ft 417 kts 194°
2026-04-15 11:46 42.16262 -4.08989 37238 ft 418 kts 194°
2026-04-15 11:46 42.10471 -4.09812 37218 ft 419 kts 194°
2026-04-15 11:47 42.04663 -4.10636 37230 ft 420 kts 194°
2026-04-15 11:47 41.98830 -4.11399 37249 ft 422 kts 193°
2026-04-15 11:48 41.92958 -4.12052 37240 ft 424 kts 192°
2026-04-15 11:48 41.87108 -4.12700 37228 ft 425 kts 192°
2026-04-15 11:49 41.81206 -4.13365 37245 ft 426 kts 192°
2026-04-15 11:49 41.75301 -4.14036 37248 ft 426 kts 192°
2026-04-15 11:50 41.69392 -4.14707 37218 ft 426 kts 192°
2026-04-15 11:50 41.63489 -4.15376 37247 ft 426 kts 192°
2026-04-15 11:51 41.57575 -4.16045 37249 ft 426 kts 192°
2026-04-15 11:51 41.51671 -4.16712 37251 ft 426 kts 192°
2026-04-15 11:52 41.45761 -4.17374 37238 ft 426 kts 192°
2026-04-15 11:52 41.39845 -4.18031 37247 ft 426 kts 192°
2026-04-15 11:53 41.33929 -4.18687 37252 ft 427 kts 192°
2026-04-15 11:53 41.28012 -4.19344 37256 ft 427 kts 192°
2026-04-15 11:54 41.22085 -4.20003 37247 ft 427 kts 192°
2026-04-15 11:54 41.16158 -4.20667 37250 ft 428 kts 192°
2026-04-15 11:55 41.10217 -4.21330 37254 ft 429 kts 192°
2026-04-15 11:55 41.04269 -4.21992 37223 ft 429 kts 192°
2026-04-15 11:56 40.98315 -4.22653 37227 ft 430 kts 191°
2026-04-15 11:56 40.92354 -4.23311 37232 ft 430 kts 191°
2026-04-15 11:57 40.83442 -4.24293 37232 ft 431 kts 191°
2026-04-15 11:58 40.77459 -4.24952 37226 ft 432 kts 191°
2026-04-15 11:58 40.71466 -4.25610 37228 ft 432 kts 191°
2026-04-15 11:59 40.65464 -4.26267 37218 ft 433 kts 191°
2026-04-15 11:59 40.59453 -4.26925 37232 ft 433 kts 191°
2026-04-15 12:00 40.53435 -4.27582 37206 ft 434 kts 192°
2026-04-15 12:00 40.47437 -4.28235 37226 ft 432 kts 191°
2026-04-15 12:01 40.41440 -4.28888 37219 ft 433 kts 191°
2026-04-15 12:01 40.35440 -4.29539 37216 ft 432 kts 191°
2026-04-15 12:02 40.29441 -4.30199 37221 ft 436 kts 191°
2026-04-15 12:02 40.23337 -4.30874 37223 ft 444 kts 191°
2026-04-15 12:03 40.17136 -4.31540 37211 ft 449 kts 191°
2026-04-15 12:03 40.10858 -4.32212 37222 ft 456 kts 191°
2026-04-15 12:04 40.04501 -4.32891 37213 ft 459 kts 191°
2026-04-15 12:04 39.98120 -4.33575 37211 ft 461 kts 191°
2026-04-15 12:05 39.91797 -4.34673 37210 ft 457 kts 195°
2026-04-15 12:05 39.85591 -4.36157 37213 ft 456 kts 196°
2026-04-15 12:06 39.79295 -4.37582 37209 ft 457 kts 195°
2026-04-15 12:06 39.73066 -4.38934 37220 ft 456 kts 195°
2026-04-15 12:07 39.66810 -4.40270 37216 ft 456 kts 195°
2026-04-15 12:07 39.60557 -4.41598 37221 ft 455 kts 195°
2026-04-15 12:08 39.54319 -4.42922 37203 ft 455 kts 195°
2026-04-15 12:08 39.48083 -4.44243 37199 ft 454 kts 195°
2026-04-15 12:09 39.41857 -4.45562 37211 ft 454 kts 195°
2026-04-15 12:09 39.35615 -4.46880 37229 ft 455 kts 195°
2026-04-15 12:10 39.29361 -4.48197 37226 ft 455 kts 195°
2026-04-15 12:10 39.23196 -4.49832 37229 ft 448 kts 204°
2026-04-15 12:11 39.17704 -4.53385 37238 ft 438 kts 218°
2026-04-15 12:11 39.12648 -4.57803 36736 ft 440 kts 218°
2026-04-15 12:11 39.10129 -4.59985 36210 ft 435 kts 218°
2026-04-15 12:12 39.07608 -4.62145 35587 ft 435 kts 218°
2026-04-15 12:12 39.05079 -4.64296 34932 ft 436 kts 217°
2026-04-15 12:12 39.02542 -4.66450 34263 ft 438 kts 217°
2026-04-15 12:12 38.99996 -4.68609 33511 ft 439 kts 217°
2026-04-15 12:13 38.97458 -4.70759 33049 ft 434 kts 217°
2026-04-15 12:13 38.94951 -4.72882 32550 ft 430 kts 217°
2026-04-15 12:13 38.92461 -4.74991 32077 ft 426 kts 217°
2026-04-15 12:13 38.89997 -4.77075 31616 ft 423 kts 217°
2026-04-15 12:14 38.87547 -4.79147 31163 ft 420 kts 217°
2026-04-15 12:14 38.85119 -4.81198 30698 ft 417 kts 217°
2026-04-15 12:14 38.82705 -4.83235 30252 ft 414 kts 217°
2026-04-15 12:14 38.80312 -4.85253 29731 ft 411 kts 217°
2026-04-15 12:15 38.77932 -4.87258 29237 ft 407 kts 217°
2026-04-15 12:15 38.75576 -4.89241 28782 ft 403 kts 217°
2026-04-15 12:15 38.73234 -4.91211 28323 ft 400 kts 217°
2026-04-15 12:15 38.70917 -4.93159 27860 ft 397 kts 217°
2026-04-15 12:16 38.68619 -4.95089 27409 ft 394 kts 217°
2026-04-15 12:16 38.66340 -4.97001 26963 ft 391 kts 217°
2026-04-15 12:16 38.64078 -4.98898 26508 ft 389 kts 217°
2026-04-15 12:16 38.61816 -5.00794 26054 ft 386 kts 217°
2026-04-15 12:17 38.59577 -5.02668 25629 ft 385 kts 217°
2026-04-15 12:17 38.57379 -5.04507 25199 ft 383 kts 217°
2026-04-15 12:17 38.55149 -5.06371 24771 ft 381 kts 217°
2026-04-15 12:17 38.52935 -5.08221 24324 ft 380 kts 217°
2026-04-15 12:18 38.50727 -5.10074 23892 ft 379 kts 218°
2026-04-15 12:18 38.48643 -5.12108 23411 ft 375 kts 223°
2026-04-15 12:18 38.46673 -5.14275 22943 ft 373 kts 225°
2026-04-15 12:18 38.44744 -5.16473 22501 ft 370 kts 225°
2026-04-15 12:19 38.42830 -5.18660 22142 ft 367 kts 225°
2026-04-15 12:19 38.40926 -5.20814 21902 ft 370 kts 224°
2026-04-15 12:19 38.38936 -5.23046 21685 ft 393 kts 224°
2026-04-15 12:19 38.36812 -5.25414 21228 ft 412 kts 224°
2026-04-15 12:20 38.34655 -5.27799 20710 ft 409 kts 223°
2026-04-15 12:20 38.32515 -5.30151 20369 ft 402 kts 223°
2026-04-15 12:20 38.30401 -5.32470 20129 ft 407 kts 223°
2026-04-15 12:20 38.28187 -5.34903 19558 ft 429 kts 223°
2026-04-15 12:21 38.25934 -5.37373 18979 ft 426 kts 223°
2026-04-15 12:21 38.23697 -5.39820 18360 ft 423 kts 223°
2026-04-15 12:21 38.21475 -5.42248 17692 ft 420 kts 223°
2026-04-15 12:21 38.19269 -5.44656 17074 ft 416 kts 223°
2026-04-15 12:22 38.17083 -5.47042 16470 ft 412 kts 223°
2026-04-15 12:22 38.14922 -5.49400 15885 ft 408 kts 223°
2026-04-15 12:22 38.12780 -5.51737 15311 ft 404 kts 223°
2026-04-15 12:22 38.10656 -5.54050 14733 ft 400 kts 223°
2026-04-15 12:23 38.08552 -5.56342 14190 ft 397 kts 223°
2026-04-15 12:23 38.06459 -5.58620 13573 ft 395 kts 223°
2026-04-15 12:23 38.04387 -5.60874 12972 ft 391 kts 223°
2026-04-15 12:23 38.02990 -5.62392 12583 ft 389 kts 223°
2026-04-15 12:24 38.00969 -5.64587 12035 ft 388 kts 223°
2026-04-15 12:24 37.98917 -5.66815 11485 ft 392 kts 222°
2026-04-15 12:24 37.96834 -5.69077 11320 ft 398 kts 222°
2026-04-15 12:24 37.94719 -5.71370 11129 ft 402 kts 222°
2026-04-15 12:25 37.92588 -5.73677 10953 ft 402 kts 222°
2026-04-15 12:25 37.90463 -5.75975 10781 ft 401 kts 222°
2026-04-15 12:25 37.88347 -5.78261 10610 ft 399 kts 222°
2026-04-15 12:25 37.86240 -5.80536 10446 ft 398 kts 221°
2026-04-15 12:26 37.84133 -5.82809 10280 ft 398 kts 221°
2026-04-15 12:26 37.82022 -5.85085 9940 ft 402 kts 221°
2026-04-15 12:26 37.79917 -5.87354 9504 ft 391 kts 221°
2026-04-15 12:26 37.77861 -5.89568 9132 ft 385 kts 221°
2026-04-15 12:27 37.75848 -5.91733 8755 ft 375 kts 221°
2026-04-15 12:27 37.73886 -5.93842 8390 ft 366 kts 221°
2026-04-15 12:27 37.71968 -5.95904 8040 ft 358 kts 221°
2026-04-15 12:27 37.70094 -5.97917 7698 ft 350 kts 221°
2026-04-15 12:28 37.68245 -5.99902 7217 ft 348 kts 221°
2026-04-15 12:28 37.66414 -6.01865 6850 ft 342 kts 221°
2026-04-15 12:28 37.64672 -6.03874 6411 ft 338 kts 225°
2026-04-15 12:28 37.62985 -6.05914 6043 ft 333 kts 223°
2026-04-15 12:29 37.61238 -6.07788 5695 ft 327 kts 218°
2026-04-15 12:29 37.59398 -6.09436 5373 ft 321 kts 213°
2026-04-15 12:29 37.57517 -6.10830 5035 ft 307 kts 208°
2026-04-15 12:29 37.55639 -6.11982 4720 ft 294 kts 204°
2026-04-15 12:30 37.53784 -6.12911 4523 ft 279 kts 200°
2026-04-15 12:30 37.51992 -6.13653 4388 ft 264 kts 197°
2026-04-15 12:30 37.50264 -6.14238 4279 ft 252 kts 193°
2026-04-15 12:30 37.48575 -6.14690 4205 ft 242 kts 191°
2026-04-15 12:31 37.46958 -6.15013 4087 ft 230 kts 187°
2026-04-15 12:31 37.45392 -6.15220 3901 ft 222 kts 185°
2026-04-15 12:31 37.43874 -6.15319 3701 ft 214 kts 180°
2026-04-15 12:31 37.42490 -6.14834 3450 ft 206 kts 141°
2026-04-15 12:32 37.41798 -6.13375 3227 ft 198 kts 97°
2026-04-15 12:32 37.41792 -6.11684 3041 ft 190 kts 91°
2026-04-15 12:32 37.41761 -6.10034 2819 ft 187 kts 91°
2026-04-15 12:32 37.41748 -6.08450 2747 ft 182 kts 90°
2026-04-15 12:33 37.41747 -6.06828 2508 ft 186 kts 89°
2026-04-15 12:33 37.41750 -6.05229 2273 ft 178 kts 89°
2026-04-15 12:33 37.41753 -6.03715 2033 ft 169 kts 89°
2026-04-15 12:33 37.41756 -6.02271 1808 ft 163 kts 89°
2026-04-15 12:34 37.41759 -6.00849 1612 ft 164 kts 89°
2026-04-15 12:34 37.41763 -5.99461 1488 ft 155 kts 89°
2026-04-15 12:34 37.41769 -5.98100 1248 ft 158 kts 89°
2026-04-15 12:34 37.41779 -5.96715 995 ft 158 kts 89°
2026-04-15 12:35 37.41781 -5.95345 806 ft 155 kts 89°
2026-04-15 12:35 37.41782 -5.93999 587 ft 153 kts 89°
2026-04-15 12:35 37.41786 -5.92673 356 ft 151 kts 89°
2026-04-15 12:35 37.41787 -5.91372 157 ft 147 kts 89°
2026-04-15 12:36 37.41789 -5.90150 98 ft 124 kts 90°
2026-04-15 12:36 37.41791 -5.89433 99 ft 49 kts 89°
2026-04-15 12:36 37.41795 -5.89032 101 ft 41 kts 90°
2026-04-15 12:36 37.41797 -5.88833 103 ft 13 kts 88°
2026-04-15 12:37 37.41863 -5.88773 103 ft 13 kts 12°
2026-04-15 12:37 37.41949 -5.88754 102 ft 11 kts 10°
2026-04-15 12:37 37.41983 -5.88812 101 ft 10 kts 274°
2026-04-15 12:37 37.41983 -5.88896 101 ft 9 kts 269°
2026-04-15 12:38 37.41983 -5.88979 100 ft 10 kts 269°
2026-04-15 12:38 37.41982 -5.89074 100 ft 11 kts 270°
2026-04-15 12:38 37.41982 -5.89181 99 ft 14 kts 270°
2026-04-15 12:38 37.41981 -5.89307 98 ft 12 kts 270°
2026-04-15 12:39 37.42016 -5.89400 98 ft 12 kts 315°
2026-04-15 12:39 37.42075 -5.89475 97 ft 12 kts 314°
2026-04-15 12:39 37.42143 -5.89451 97 ft 11 kts 45°
2026-04-15 12:39 37.42203 -5.89444 96 ft 10 kts 319°
2026-04-15 12:40 37.42259 -5.89517 95 ft 12 kts 314°
2026-04-15 12:40 37.42318 -5.89593 95 ft 12 kts 314°
2026-04-15 12:40 37.42368 -5.89660 92 ft 5 kts 310°
2026-04-15 12:40 37.42376 -5.89672 93 ft 1 kts 309°
2026-04-15 12:41 37.42389 -5.89683 95 ft 3 kts 348°
2026-04-15 12:41 37.42407 -5.89675 93 ft 3 kts 28°
2026-04-15 12:41 37.42421 -5.89659 93 ft 2 kts 60°
2026-04-15 12:41 37.42422 -5.89645 93 ft 2 kts 89°
2026-04-15 12:42 37.42422 -5.89637 93 ft 0 kts 94°